Accueil
METAR-TAF:

METAR-TAF

Aéroports :

Base aérienne 279 Châteaudun

Châteaudun, France

latitude: 48-03N, longitude: 001-23E, altitude: 134 m

Observation

Le bulletin a été fait il y a 27 minutes, à 12:00 UTC
Vent 6 kt de nord, variant entre nord-ouest et nord-est
Température 12°C
Humidité 54%
Pression 1022 hPa
Visibilité 10 km ou plus
Nuages épars à une hauteur de 3900 ft
Nuages épars à une hauteur de 4600 ft

METAR: LFOC 181200Z AUTO 35006KT 310V050 9999 SCT039 SCT046 12/03 Q1022

Heure: 14:27 (12:27 UTC)


TAF: absent

Observations et prévisions météorologiques de plus de 4000 aéroports (messages METAR et TAF).

Les stations disponibles sont représentées par des disques jaunes et rouges sur la carte.

Passer la souris dessus pour voir le nom de la station.

Cliquer dessus pour voir les observations et prévisions météorologiques.

Pour changer de carte: cliquez sur les boutons verts avec une croix noire pour zoomer, sur le bouton vert avec un tiret pour effectuer un zoom arrière, ou sur les flèches vertes pour les cartes adjacentes.


METAR-TAF: